Station 46053 (LLNR 196) - EAST SANTA BARBARA - 12NM Southwest of Santa Barbara, CA Image indicating link to RSS feed of recent meteorological observations for station 46053


Conditions at 46053 as of
(3:10 pm PDT)
2210 GMT on 05/18/2024:
     

Click on the graph icon in the table below to see a time series plot of the last five days of that observation.

5-day plot - Wind Direction Wind Direction (WDIR):WNW ( 290 deg true )
5-day plot - Wind Speed Wind Speed (WSPD): 9.7 kts
5-day plot - Wind Gust Wind Gust (GST): 11.7 kts
5-day plot - Wave Height Wave Height (WVHT): 2.6 ft
5-day plot - Average Wave Period Average Period (APD): 5.5 sec
5-day plot - Mean Wave Direction Mean Wave Direction (MWD): W ( 260 deg true )
5-day plot - Atmospheric Pressure Atmospheric Pressure (PRES):29.98 in
5-day plot - Air Temperature Air Temperature (ATMP): 56.1 °F
5-day plot - Water Temperature Water Temperature (WTMP): 59.0 °F
5-day plot - Dew Point Dew Point (DEWP): 53.4 °F
5-day plot - Wind Speed at 10 Meters Wind Speed at 10 meters (WSPD10M): 9.7 kts
5-day plot - Wind Speed at 20 Meters Wind Speed at 20 meters (WSPD20M): 9.7 kts
5-day plot -  Wind Speed, Wind Gust and Atmospheric Pressure Combined plot of Wind Speed, Gust, and Air Pressure
Supplemental Measurements
Highest 1-minute Wind Speed
Time (PDT)5-day plot - 1-Minute Wind Speed WSPD 5-day plot - 1-Minute Wind Direction WDIR
3:04 pm 9.7 kts-
Previous observations
TIME
(PDT)
5-day plot - Wind Direction
WDIR
 
5-day plot - Wind Speed
WSPD
kts
5-day plot - Wind Gust
GST
kts
5-day plot - Wave Height
WVHT
ft
5-day plot - Dominant Wave Period
DPD
sec
5-day plot - Average Wave Period
APD
sec
5-day plot - Mean Wave Direction
MWD
 
5-day plot - Atmospheric Pressure
PRES
in
5-day plot - Pressure Tendency
PTDY
in
5-day plot - Air Temperature
ATMP
°F
5-day plot - Water Temperature
WTMP
°F
5-day plot - Dew Point
DEWP
°F
5-day plot - Salinity
SAL
psu
5-day plot - Visibility
VIS
nmi
5-day plot - Tide (above MLLW)
TIDE
ft
2024-05-18 03:00 pm W 9.7 11.7----29.98-0.01 56.1 59.0 53.4---
2024-05-18 02:50 pm W 9.7 11.7 2.3 115.5 W29.98- 56.1 59.0 53.2---
2024-05-18 02:40 pmWNW 9.7 11.7 2.3-5.5 W29.99- 56.1 59.0 53.4---
2024-05-18 02:30 pmWNW 9.7 11.7----29.99- 55.9 59.0 53.6---
2024-05-18 02:20 pm W 9.7 11.7 2.3 115.8 W29.99- 55.9 59.2 53.8---
2024-05-18 02:10 pm W 9.7 11.7 2.3-5.8 W29.99- 56.1 59.0 54.0---
2024-05-18 02:00 pm W 9.7 9.7----29.99+0.00 56.1 59.0 53.6---
2024-05-18 01:50 pm W 7.8 9.7 2.3 125.5WNW29.99- 56.1- 53.4---
2024-05-18 01:40 pm W 7.8 9.7 2.3-5.5WNW29.99- 56.1 59.2 53.2---
2024-05-18 01:30 pm W 7.8 9.7----29.99- 56.1 59.2 53.4---
2024-05-18 01:20 pm W 5.8 7.8 2.3 125.5WNW29.99- 56.1 59.0 53.6---
2024-05-18 01:10 pmWNW 5.8 7.8 2.3-5.5WNW29.99- 56.1 59.0 53.6---
2024-05-18 01:00 pm W 5.8 7.8----29.99+0.00 55.9 59.0 53.4---
2024-05-18 12:50 pmWNW 5.8 7.8 2.3 125.5 W29.99- 55.9 59.0 53.6---
2024-05-18 12:40 pmWNW 5.8 7.8----29.99- 55.9 58.8 53.6---
2024-05-18 12:30 pmWNW 5.8 7.8----29.99- 55.8 58.8 53.6---
2024-05-18 12:20 pmWNW 5.8 7.8 2.3 125.4 W30.00- 55.6 58.8 53.6---
2024-05-18 12:10 pmWNW 7.8 7.8----30.00- 55.8 58.6 53.8---
2024-05-18 12:00 pm W 7.8 9.7----30.00+0.02 55.8 58.6 53.6---
2024-05-18 11:50 am W 7.8 7.8 2.3 115.7WSW29.99- 55.8 58.6 53.4---
2024-05-18 11:40 am W 7.8 7.8 2.3-5.7WSW30.00- 55.8 58.5 53.2---
2024-05-18 11:30 am W 7.8 9.7----30.00- 55.8 58.5 53.4---
2024-05-18 11:20 am W 7.8 9.7 2.3 115.7 W30.00- 55.6 58.5 53.4---
2024-05-18 11:10 am W 9.7 9.7 2.3-5.7 W29.99- 55.6 58.5 53.4---
2024-05-18 11:00 am W 7.8 9.7----29.99+0.02 55.6 58.3 53.8---
2024-05-18 10:50 am W 9.7 11.7 2.3 125.8 W29.99- 55.4 58.3 53.4---
2024-05-18 10:40 amWSW 7.8 9.7----29.99- 55.4 58.3 53.6---
2024-05-18 10:30 amWSW 7.8 9.7----29.99- 55.4 58.3 53.6---
2024-05-18 10:20 amWSW 7.8 9.7 2.3 116.0 W29.99- 55.4 58.3 53.6---
2024-05-18 10:10 amWSW 5.8 7.8 2.3-6.0 W29.99- 55.4 58.3 53.6---
2024-05-18 10:00 am W 5.8 7.8----29.99+0.03 55.4 58.3 53.6---
2024-05-18 09:50 am W 5.8 7.8 2.3 136.1 W29.98- 55.4 58.3 53.6---
2024-05-18 09:40 am W 5.8 7.8 2.3-6.1 W29.98- 55.4 58.1 53.4---
2024-05-18 09:30 am W 5.8 7.8----29.98- 55.4 58.1 53.2---
2024-05-18 09:20 am W 5.8 7.8 2.3 126.0 W29.98- 55.4 58.1 53.2---
2024-05-18 09:10 am W 5.8 7.8 2.3-6.0 W29.98- 55.2 58.1 53.1---
2024-05-18 09:00 am W 5.8 7.8----29.98+0.04 55.4 58.1 53.1---
2024-05-18 08:50 am W 5.8 5.8 2.3 96.0 W29.98- 55.2 57.9 52.7---
2024-05-18 08:40 am W 5.8 7.8 2.3-6.0 W29.98- 55.2 57.9 52.7---
2024-05-18 08:30 am W 5.8 7.8----29.98- 55.2 57.9 52.7---
2024-05-18 08:20 am W 5.8 9.7 2.6 85.8 W29.98- 55.2 57.9 53.1---
2024-05-18 08:10 amWSW 5.8 7.8 2.6-5.8 W29.97- 55.2 57.9 53.2---
2024-05-18 08:00 am W 5.8 7.8----29.97+0.03 55.2 57.9 53.2---
2024-05-18 07:50 am W 3.9 5.8 2.3 85.5 W29.97- 55.2 57.9 53.1---
2024-05-18 07:40 am W 3.9 5.8 2.3-5.5 W29.97- 55.2 57.9 52.9---
2024-05-18 07:30 am W 3.9 5.8----29.97- 55.2 57.9 53.1---
2024-05-18 07:20 am W 3.9 5.8 2.6 95.9 W29.97- 55.0 57.9 52.9---
2024-05-18 07:10 am W 3.9 5.8 2.6-5.9 W29.97- 55.2 57.9 53.2---
2024-05-18 07:00 am W 3.9 5.8----29.96+0.03 55.0 57.9 53.1---
2024-05-18 06:50 amWSW 5.8 5.8 3.0 96.2WNW29.96- 55.0 57.9 53.1---
2024-05-18 06:40 amWSW 5.8 7.8 3.0-6.2WNW29.96- 55.0 57.9 53.1---
2024-05-18 06:30 amWSW 5.8 5.8----29.95- 55.0 57.9 53.1---
2024-05-18 06:20 am W 5.8 7.8 3.0 105.9 W29.95- 54.9 57.9 52.9---
2024-05-18 06:10 am W 5.8 5.8 3.0-5.9 W29.94- 54.9 57.9 52.9---
2024-05-18 06:00 am W 5.8 5.8----29.94+0.02 54.9 57.9 52.9---
2024-05-18 05:50 am W 5.8 7.8 2.6 125.5WNW29.94- 54.9 57.9 52.9---
2024-05-18 05:40 am W 5.8 7.8----29.94- 54.7 57.9 52.7---
2024-05-18 05:30 am W 7.8 9.7----29.93- 54.7 57.9 52.7---
2024-05-18 05:20 am W 7.8 9.7 2.6 95.4 W29.93- 54.9 57.9 52.9---
2024-05-18 05:10 am W 7.8 9.7 2.6-5.4 W29.93- 54.9 57.9 52.9---
2024-05-18 05:00 am W 7.8 9.7----29.94+0.01 54.9 57.9 52.9---
2024-05-18 04:50 am W 7.8 9.7 2.3 134.8 W29.94- 54.9 57.9 52.7---
2024-05-18 04:40 am W 7.8 9.7----29.94- 55.0 57.9 52.9---
2024-05-18 04:30 am W 7.8 9.7----29.94- 54.9 57.9 52.7---
2024-05-18 04:20 am W 7.8 11.7 2.6 125.1 W29.94- 54.9 57.9 52.7---
2024-05-18 04:10 amWSW 9.7 11.7 2.6-5.1 W29.94- 55.0 57.9 53.1---
2024-05-18 04:00 amWSW 9.7 11.7----29.93+0.00 55.0 57.9 53.1---
2024-05-18 03:50 amWSW 9.7 11.7 2.6 135.2 W29.93- 55.0 57.9 53.1---
2024-05-18 03:40 amWSW 9.7 11.7 2.6-5.2 W29.93- 55.0 57.9 53.1---
2024-05-18 03:30 amWSW 9.7 11.7----29.93- 54.9 57.9 52.9---
2024-05-18 03:20 amWSW 9.7 11.7 2.6 135.1WNW29.93- 54.9 57.9 52.9---
2024-05-18 03:10 am W 9.7 9.7 2.6-5.1WNW29.92- 54.9 57.9 52.9---
2024-05-18 03:00 am W 9.7 9.7----29.92+0.00 54.7 57.9 52.7---
2024-05-18 02:50 am W 7.8 11.7 2.6 104.9WNW29.93- 54.9 57.9 52.9---
2024-05-18 02:40 amWSW 9.7 11.7----29.93- 54.7 57.9 52.7---
2024-05-18 02:30 amWSW 9.7 11.7----29.93- 54.9 57.9 52.9---
2024-05-18 02:20 amWSW 9.7 13.6 3.0 134.9 W29.93- 54.9 57.9 53.1---
2024-05-18 02:10 amWSW 9.7 13.6----29.92- 54.7 57.9 52.9---
2024-05-18 02:00 amWSW 9.7 11.7----29.93-0.01 54.9 57.9 52.9---
2024-05-18 01:50 amWSW 9.7 11.7 3.0 134.7WNW29.93- 54.9 57.9 52.7---
2024-05-18 01:40 amWSW 9.7 11.7----29.93- 54.9 57.9 52.7---
2024-05-18 01:30 amWSW 9.7 11.7----29.93- 54.9 57.9 52.5---
2024-05-18 01:20 amWSW 11.7 13.6 2.6 134.6 W29.94- 55.0 57.9 52.7---
2024-05-18 01:10 amWSW 11.7 13.6 2.6-4.6 W29.94- 55.0 57.9 52.7---
2024-05-18 01:00 amWSW 9.7 11.7----29.94+0.01 54.9 57.9 52.5---
2024-05-18 12:50 am SW 9.7 11.7 3.0 134.6WNW29.94- 55.0 58.1 52.7---
2024-05-18 12:40 am SW 9.7 11.7 3.0-4.6WNW29.94- 55.0 58.1 52.7---
2024-05-18 12:30 am SW 9.7 13.6----29.94- 55.0 58.1 52.9---
2024-05-18 12:20 am SW 9.7 13.6 2.6 134.5WSW29.93- 55.0 58.1 52.9---
2024-05-18 12:10 am SW 9.7 13.6 2.6-4.5WSW29.93- 55.0 58.1 52.7---
2024-05-18 12:00 am SW 9.7 11.7----29.93+0.01 55.0 57.9 52.7---
2024-05-17 11:50 pm SW 9.7 11.7 3.0 134.3 W29.93- 55.0 57.9 52.5---
2024-05-17 11:40 pm SW 9.7 11.7 3.0-4.3 W29.93- 55.0 57.9 52.5---
2024-05-17 11:30 pm SW 9.7 11.7----29.94- 55.0 57.9 52.5---
2024-05-17 11:20 pm SW 7.8 9.7 3.0 134.4 W29.94- 55.2 57.9 52.7---
2024-05-17 11:10 pm SW 7.8 9.7----29.93- 55.2 57.9 52.7---
2024-05-17 11:00 pm SW 7.8 11.7----29.94+0.04 55.2 57.9 52.7---
2024-05-17 10:50 pm SW 9.7 11.7 2.6 134.3WNW29.94- 55.2 57.9 52.7---
2024-05-17 10:40 pm SW 7.8 11.7----29.94- 55.4 57.9 52.9---
2024-05-17 10:30 pm SW 7.8 9.7----29.94- 55.2 57.9 52.5---
2024-05-17 10:20 pm SW 7.8 9.7 2.6 134.2 W29.94- 55.0 57.9 52.5---
2024-05-17 10:10 pmWSW 7.8 9.7 2.6-4.2 W29.93- 55.0 57.9 52.3---
2024-05-17 10:00 pmWSW 7.8 11.7----29.93+0.03 55.2 57.9 52.9---
2024-05-17 09:50 pmWSW 7.8 11.7 2.6 44.0 W29.93- 55.0 57.9 52.9---
2024-05-17 09:40 pmWSW 9.7 11.7----29.92- 55.0 57.9 52.9---
2024-05-17 09:30 pmWSW 9.7 13.6----29.92- 55.2- 52.9---
2024-05-17 09:20 pmWSW 11.7 15.5 2.6 134.2WNW29.92- 55.4 57.9 52.7---
2024-05-17 09:10 pmWSW 11.7 15.5 2.6-4.2WNW29.92- 55.4 57.9 52.9---
2024-05-17 09:00 pm W 11.7 15.5----29.92+0.01 55.6 57.9 53.2---
2024-05-17 08:50 pmWSW 11.7 13.6 2.6 134.0 W29.92- 55.6 57.9 53.4---
2024-05-17 08:40 pm W 11.7 13.6----29.91- 55.6 57.9 53.4---
2024-05-17 08:30 pm W 11.7 13.6----29.91- 55.6 57.9 53.4---
2024-05-17 08:20 pm W 11.7 13.6 2.6 134.1WNW29.90- 55.6 57.9 53.6---
2024-05-17 08:10 pm W 11.7 13.6 2.6-4.1WNW29.91- 55.6 57.9 53.6---
2024-05-17 08:00 pm W 9.7 13.6----29.90+0.00 55.6 57.9 53.4---
2024-05-17 07:50 pm W 9.7 11.7 2.6 144.0WSW29.89- 55.6 57.9 53.4---
2024-05-17 07:40 pm W 9.7 13.6 2.6-4.0WSW29.90- 55.8 57.9 53.6---
2024-05-17 07:30 pm W 9.7 13.6----29.90- 55.9 57.9 53.8---
2024-05-17 07:20 pm W 11.7 13.6 2.6 144.1WSW29.90- 55.9 58.1 53.6---
2024-05-17 07:10 pm W 11.7 13.6----29.89- 55.9 58.1 53.6---
2024-05-17 07:00 pm W 11.7 13.6----29.90+0.00 55.9 58.1 53.4---
2024-05-17 06:50 pm W 11.7 13.6 2.6 104.0 W29.90- 56.1 58.1 53.8---
2024-05-17 06:40 pm W 11.7 13.6 2.6-4.0 W29.90- 55.9 58.1 53.6---
2024-05-17 06:30 pm W 11.7 13.6----29.90- 56.1 58.1 54.0---
2024-05-17 06:20 pm W 11.7 13.6 2.6 144.2WSW29.91- 56.1 58.1 54.0---
2024-05-17 06:10 pm W 9.7 13.6----29.90- 56.3 58.1 54.3---
2024-05-17 06:00 pm W 11.7 15.5----29.90-0.01 56.1 58.1 54.0---
2024-05-17 05:50 pm W 11.7 15.5 2.3 144.1WSW29.90- 56.3 58.1 54.1---
2024-05-17 05:40 pm W 11.7 13.6----29.90- 56.1 58.1 54.0---
2024-05-17 05:30 pm W 11.7 13.6----29.90- 56.3 58.1 54.1---
2024-05-17 05:20 pm W 11.7 13.6 2.3 144.2 W29.90- 56.1 58.1 53.8---
2024-05-17 05:10 pm W 11.7 13.6 2.3-4.2 W29.89- 56.1 58.1 53.8---
2024-05-17 05:00 pm W 11.7 13.6----29.90-0.04 56.1 58.1 54.0---
2024-05-17 04:50 pm W 11.7 13.6 2.3 94.1 W29.89- 56.1 58.1 54.0---
2024-05-17 04:40 pm W 9.7 13.6----29.89- 56.1 58.1 54.0---
2024-05-17 04:30 pm W 9.7 13.6----29.89- 56.1 58.1 54.3---
2024-05-17 04:20 pm W 9.7 13.6 2.3 144.3 W29.90- 56.1 57.9 54.3---
2024-05-17 04:10 pm W 9.7 11.7 2.3-4.3 W29.90- 56.1 58.1 54.1---
2024-05-17 04:00 pm W 9.7 13.6----29.90-0.05 56.1 58.1 54.1---
2024-05-17 03:50 pm W 9.7 11.7 2.3 144.6 SW29.91- 55.9 58.1 54.0---
2024-05-17 03:40 pm W 9.7 11.7----29.91- 55.9 58.1 54.1---
2024-05-17 03:30 pm W 9.7 11.7----29.91- 55.9 58.1 54.3---
2024-05-17 03:20 pm W 9.7 11.7 2.0 144.4 W29.91- 56.1 58.1 54.5---
2024-05-17 03:10 pm W 9.7 11.7 2.0-4.4 W29.91- 55.9 58.1 54.1---
2024-05-17 03:00 pm W 9.7 11.7----29.92-0.05 55.9 58.1 54.3---
2024-05-17 02:50 pm W 9.7 11.7 2.0 144.3 S29.92- 56.1 58.1 54.5---

Detailed Wave Summary
for 46053 as of (3:10 pm PDT)
2210 GMT on 05/18/2024:

These wave data are displayed in rounded times.

     

Click on the graph icon in the table below to see a time series plot of the last five days of that observation.

5-day plot - Significant Wave Height Significant Wave Height (WVHT): 2.6 ft
5-day plot - Swell Height Swell Height (SwH): 2.3 ft
5-day plot - Swell Period Swell Period (SwP): 9.1 sec
5-day plot - Swell Direction Swell Direction (SwD): W
5-day plot - Wind Wave Height Wind Wave Height (WWH): 1.0 ft
5-day plot - Wind Wave Period Wind Wave Period (WWP): 4.0 sec
5-day plot - Wind Wave Direction Wind Wave Direction (WWD): W
5-day plot - Average Wave Period Average Wave Period (APD): 5.5 sec
Previous observations
TIME
(PDT)
5-day plot - Wave Height
WVHT
ft
5-day plot - Swell Height
SwH
ft
5-day plot - Swell Period
SwP
sec
5-day plot - Swell Direction
SwD
 
5-day plot - Wind Wave Height
WWH
ft
5-day plot - Wind Wave Period
WWP
sec
5-day plot - Wind Wave Direction
WWD
 
5-day plot - Wave Steepness
STEEPNESS
 
5-day plot - Average Wave Period
APD
sec
2024-05-18 02:40 pm 2.3 2.0 10.8 W 1.0 4.3 W N/A 5.5
2024-05-18 02:10 pm 2.3 2.3 11.4 W 1.0 4.3 W N/A 5.8
2024-05-18 01:40 pm 2.3 2.3 12.1WNW 1.0 2.6 W N/A 5.5
2024-05-18 01:10 pm 2.3 2.0 12.1WNW 1.0 4.0 WSW N/A 5.5
2024-05-18 12:40 pm 2.3 2.0 12.1 W 1.0 3.7 W N/A 5.5
2024-05-18 12:10 pm 2.3 2.0 12.1 W 1.0 4.0 W N/A 5.4
2024-05-18 11:40 am 2.3 2.3 11.4WSW 0.7 2.5 WSW N/A 5.7
2024-05-18 11:10 am 2.3 2.0 11.4 W 1.0 4.2 W N/A 5.7
2024-05-18 10:40 am 2.3 2.0 12.1 W 0.7 4.0 W N/A 5.8
2024-05-18 10:10 am 2.3 2.3 11.4 W 0.7 3.7 WSW N/A 6.0
2024-05-18 09:40 am 2.3 2.3 12.9 W 0.7 4.0 W N/A 6.1
2024-05-18 09:10 am 2.3 2.3 12.1 W 0.7 3.8 WSW N/A 6.0
2024-05-18 08:40 am 2.3 2.3 9.1 W 0.7 3.4 W N/A 6.0
2024-05-18 08:10 am 2.6 2.3 8.3 W 1.0 3.6 W N/A 5.8
2024-05-18 07:40 am 2.3 2.3 8.3 W 1.0 2.9 WSW N/A 5.5
2024-05-18 07:10 am 2.6 2.6 9.1 W 1.0 3.0 W SWELL 5.9
2024-05-18 06:40 am 3.0 2.6 9.1WNW 1.0 3.8 WSW SWELL 6.2
2024-05-18 06:10 am 3.0 2.6 10.0 W 1.0 3.3 W SWELL 5.9
2024-05-18 05:40 am 2.6 2.3 12.1WNW 1.0 3.6 WSW SWELL 5.5
2024-05-18 05:10 am 2.6 2.6 9.1 W 1.0 3.2 WSW SWELL 5.4
2024-05-18 04:40 am 2.3 2.0 12.9 W 1.3 3.4 W N/A 4.8
2024-05-18 04:10 am 2.6 2.3 12.1 W 1.3 3.7 W N/A 5.1
2024-05-18 03:40 am 2.6 2.3 12.9 W 1.3 3.8 WSW SWELL 5.2
2024-05-18 03:10 am 2.6 2.3 12.9WNW 1.3 3.8 WSW SWELL 5.1
2024-05-18 02:40 am 2.6 2.3 10.0WNW 1.6 4.0 W SWELL 4.9
2024-05-18 02:10 am 3.0 2.3 12.9 W 1.6 3.7 W SWELL 4.9
2024-05-18 01:40 am 3.0 2.3 12.9WNW 1.6 4.8 WSW SWELL 4.7
2024-05-18 01:10 am 2.6 2.0 12.9 W 1.6 3.7 W SWELL 4.6
2024-05-18 12:40 am 3.0 2.0 12.9WNW 2.0 4.0 W SWELL 4.6
2024-05-18 12:10 am 2.6 2.0 12.9WSW 2.0 4.2 W SWELL 4.5
2024-05-17 11:40 pm 3.0 2.0 12.9 W 2.0 4.3 W SWELL 4.3
2024-05-17 11:10 pm 3.0 2.3 12.9 W 1.6 4.0 WNW SWELL 4.4
2024-05-17 10:40 pm 2.6 2.3 12.9WNW 1.6 3.7 W SWELL 4.3
2024-05-17 10:10 pm 2.6 2.0 12.9 W 2.0 3.8 W SWELL 4.2
2024-05-17 09:40 pm 2.6 1.6 13.8WSW 2.0 3.7 W N/A 4.0
2024-05-17 09:10 pm 2.6 1.6 12.9WNW 2.0 3.7 W AVERAGE 4.2
2024-05-17 08:40 pm 2.6 1.6 12.9 W 2.0 3.6 W N/A 4.0
2024-05-17 08:10 pm 2.6 1.6 12.9WNW 2.0 3.7 W N/A 4.1
2024-05-17 07:40 pm 2.6 1.6 13.8WSW 2.0 3.6 W N/A 4.0
2024-05-17 07:10 pm 2.6 1.6 13.8WSW 2.0 3.3 W N/A 4.1
2024-05-17 06:40 pm 2.6 1.6 10.0 W 2.0 3.1 W N/A 4.0
2024-05-17 06:10 pm 2.6 2.0 13.8WSW 2.0 3.4 WNW N/A 4.2
2024-05-17 05:40 pm 2.3 1.6 13.8WSW 2.0 3.3 W N/A 4.1
2024-05-17 05:10 pm 2.3 1.6 13.8 W 1.6 2.7 W N/A 4.2
2024-05-17 04:40 pm 2.3 1.6 9.1 W 1.6 2.9 W N/A 4.1
2024-05-17 04:10 pm 2.3 1.6 13.8 W 1.3 5.0 W N/A 4.3
2024-05-17 03:40 pm 2.3 1.6 13.8 SW 1.3 4.0 W N/A 4.6
2024-05-17 03:10 pm 2.0 1.6 13.8 W 1.3 5.0 W N/A 4.4

Plot of wave energy versus frequency (and period)